Flag for Canada Weather past 2 weeks in Charlottetown, Prince Edward Island, Canada

27 °F

Passing clouds.

Feels Like: 16 °F
Forecast: N/A
Wind: 12 mph from West

Location: Charlottetown

Current Time: Nov 24, 2015 at 7:10:34 PM

Latest Report: Nov 24, 2015 at 6:00 PM

Visibility: 15 mi

Pressure: 30.14 "Hg

Humidity: 69%

Dew point: 18 °F

Location of CharlottetownLocation

Historic Weather in Charlottetown — Graph


Charlottetown temperature yesterday

Maximum temperature yesterday: 61 °F (at 10:00 AM)
Minimum temperature yesterday: 36 °F (at 9:00 PM)
Average temperature yesterday: 47 °F

Past Weeks' High & Low Weather Summary

High61 °F (Nov 23, 10:00 AM)100% (Nov 13, 4:00 AM)30.59 "Hg (Nov 13, 4:00 AM)
Low27 °F (Nov 24, 1:00 PM)58% (Nov 10, 11:00 AM)29.24 "Hg (Nov 13, 2:48 PM)
Average40 °F84%30.01 "Hg
* Reported Nov 9 5:00 PM — Nov 24 5:00 PM, Charlottetown, Weather by CustomWeather, © 2015

Note: Actual official high and low records may vary slightly from our data, if they occured in-between our weather recording intervals... More about our weather records


Charlottetown weather history for previous 24 hours

Time TempWeatherWind HumidityBarometerVisibility
5:00 PM
Tue, Nov 24
27 °FSnow flurries. Mostly cloudy.9 mph74%30.11 "Hg15 mi
4:00 PM27 °FSnow flurries. Broken clouds.12 mph69%30.09 "Hg15 mi
3:00 PM27 °FSnow flurries. Partly sunny.14 mph69%30.06 "Hg15 mi
2:00 PM27 °FSnow flurries. Overcast.15 mph69%30.04 "Hg15 mi
1:00 PM27 °FSnow flurries. Overcast.16 mph69%30.03 "Hg15 mi
12:00 PM28 °FSnow flurries. Overcast.13 mph69%30.01 "Hg15 mi
11:00 AM28 °FSnow flurries. Partly sunny.13 mph69%30.01 "Hg12 mi
10:00 AM28 °FLight snow. Partly sunny.15 mph69%30.00 "Hg15 mi
9:00 AM28 °FLight snow. Overcast.9 mph74%29.97 "Hg15 mi
8:00 AM28 °FLight snow. Overcast.14 mph74%29.94 "Hg15 mi
7:00 AM28 °FOvercast.16 mph80%29.90 "Hg15 mi
6:00 AM30 °FOvercast.16 mph80%29.87 "Hg15 mi
5:00 AM30 °FLight snow. Mostly cloudy.10 mph86%29.84 "Hg15 mi
4:00 AM32 °FLight snow. Mostly cloudy.13 mph87%29.80 "Hg10 mi
3:00 AM32 °FLight snow. Mostly cloudy.13 mph93%29.78 "Hg7 mi
2:00 AM34 °FLight snow. Mostly cloudy.12 mph93%29.74 "Hg10 mi
1:00 AM34 °FLight rain. Low clouds.13 mph93%29.70 "Hg7 mi
12:00 AM36 °FLight rain. Mostly cloudy.8 mph93%29.67 "Hg8 mi
11:00 PM
Mon, Nov 23
36 °FDrizzle. Fog.14 mph93%29.64 "Hg5 mi
10:00 PM36 °FDrizzle. Fog.16 mph93%29.61 "Hg5 mi
9:00 PM36 °FLight rain. Fog.18 mph93%29.61 "Hg5 mi
8:00 PM37 °FLight rain. Fog.17 mph93%29.60 "Hg5 mi
7:00 PM37 °FLight rain. Low clouds.16 mph93%29.57 "Hg8 mi
Weather by CustomWeather, © 2015

See weather overviewHow to use our weather pages